sat.trackr.live / text

‹ back to catalog

QIANFAN-55

NORAD 62785 · 2025-016A

PAYLOAD ACTIVE UNKNOWN

§ Identity

Operator
Country
PRC
Launch date
2025-01-23
Launch site
TAISC
Launch vehicle
Mass (kg)
RCS (m²)

External: N2YO · Heavens-Above · Gunter

§ Orbital elements

Epoch: 2026-09-22T21:08:59.845344Z

Period
106.59 min
Inclination
88.9673°
Eccentricity
0.0015708
Mean motion
13.51025084 rev/d
Perigee alt
1,056.8 km
Apogee alt
1,080.2 km
Semi-major
7,446.6 km
B*
5.9901e-5
RAAN
73.7086°
Arg perigee
244.6591°
Mean anomaly
115.2934°
Rev number
8,555

§ Raw data

QIANFAN-551 62785U 25016A   26265.88124821  .00000051  00000+0  59901-4 0  99902 62785  88.9673  73.7086 0015708 244.6591 115.2934 13.51025084 85551

JSON: /api/v1/satellites/62785 · /tle

For live sub-satellite position, see the globe view (requires WebGL).

§ Visibility from observer

Set your observer location to see the next 7 days of passes ≥ 10°. The values pass through the URL so the page stays shareable.

No JS? Fill the form by hand. The geolocation button needs JavaScript.